Location: Selkirk
(50.1500°N, 96.8830°W)
Time: 06:22:07
(UTC-05:00)

OTV 5 (USA 277) - Visible Passes

Search period start: 22 June 2018 00:00
Search period end: 02 July 2018 00:00
Orbit: 313 x 320 km, 54.5° (Epoch: 21 June)

Date Brightness Start Highest point End Pass type
(mag) Time Alt. Az. Time Alt. Az. Time Alt. Az.
22 Jun ? 00:15:00 10° WNW 00:17:30 32° N 00:20:00 10° ENE visible
22 Jun ? 01:49:18 10° WNW 01:52:01 85° SSW 01:52:38 49° ESE visible
22 Jun ? 22:54:53 10° WNW 22:57:22 31° N 22:59:50 10° ENE visible
23 Jun ? 00:29:27 10° WNW 00:32:04 42° NNE 00:34:38 10° E visible
23 Jun ? 02:03:48 10° WNW 02:05:27 28° W 02:05:27 28° W visible
23 Jun ? 23:09:30 10° WNW 23:11:58 30° N 23:14:26 10° ENE visible
24 Jun ? 00:43:51 10° WNW 00:46:34 69° NNE 00:47:41 30° E visible
24 Jun ? 23:24:00 10° WNW 23:26:32 35° N 23:29:06 10° E visible
25 Jun ? 00:58:18 10° WNW 01:00:55 59° SW 01:00:55 59° SW visible
25 Jun ? 23:38:26 10° WNW 23:41:05 52° NNE 23:43:24 13° E visible
26 Jun ? 01:12:54 10° W 01:14:13 20° WSW 01:14:13 20° WSW visible
26 Jun ? 23:52:50 10° WNW 23:55:33 86° SSW 23:56:47 28° ESE visible
27 Jun ? 22:33:00 10° WNW 22:35:35 41° NNE 22:38:12 10° E visible
28 Jun ? 00:07:20 10° WNW 00:09:55 40° SW 00:10:15 38° SSW visible
28 Jun ? 22:47:24 10° WNW 22:50:06 68° NNE 22:52:47 10° ESE visible
29 Jun ? 00:22:07 10° W 00:23:45 18° SW 00:23:45 18° SW visible
29 Jun ? 23:01:50 10° WNW 23:04:31 60° SSW 23:06:27 16° SE visible
30 Jun ? 23:16:26 10° W 23:18:49 27° SW 23:20:03 19° S visible
01 Jul ? 23:31:36 10° WSW 23:33:01 13° SW 23:33:42 12° SSW visible
